CSN6418 ZGSZ-ZBAA

Flight info

Callsign CSN6418
Flight time 2h 47m
Altitude 35100
Route MIPAG1 MIPAG W21 TEPID W22 YIN A461 BUBDA W56 DUGEB
Aircraft A321/M-SDE3FGHIRWY/LB1

Departure

Time 2026-05-08 11:18
Airport Shenzhen Bao'an International Airport (ZGSZ)

Arrival

Time 2026-05-08 14:05
Airport Beijing Capital International Airport (ZBAA)
Time Latitude Longitude Altitude Speed Heading
2026-05-08 10:38 22.63551 113.80307 21 ft 0 kts 113°
2026-05-08 11:05 22.63556 113.80294 21 ft 2 kts 113°
2026-05-08 11:05 22.63562 113.80278 22 ft 2 kts 112°
2026-05-08 11:05 22.63568 113.80261 21 ft 2 kts 106°
2026-05-08 11:05 22.63567 113.80244 21 ft 2 kts 54°
2026-05-08 11:06 22.63559 113.80235 23 ft 2 kts 30°
2026-05-08 11:06 22.63543 113.80230 22 ft 2 kts 359°
2026-05-08 11:06 22.63527 113.80234 22 ft 2 kts 334°
2026-05-08 11:06 22.63517 113.80239 22 ft 0 kts 333°
2026-05-08 11:09 22.63528 113.80233 21 ft 4 kts 334°
2026-05-08 11:09 22.63562 113.80215 21 ft 7 kts 333°
2026-05-08 11:10 22.63620 113.80183 21 ft 11 kts 333°
2026-05-08 11:10 22.63679 113.80189 21 ft 11 kts 48°
2026-05-08 11:10 22.63710 113.80252 21 ft 9 kts 64°
2026-05-08 11:10 22.63742 113.80320 21 ft 12 kts 63°
2026-05-08 11:11 22.63782 113.80407 21 ft 14 kts 63°
2026-05-08 11:11 22.63829 113.80508 21 ft 16 kts 63°
2026-05-08 11:11 22.63884 113.80625 21 ft 15 kts 63°
2026-05-08 11:11 22.63931 113.80726 21 ft 16 kts 63°
2026-05-08 11:12 22.63960 113.80800 21 ft 10 kts 89°
2026-05-08 11:12 22.63924 113.80847 21 ft 9 kts 152°
2026-05-08 11:12 22.63855 113.80884 21 ft 13 kts 153°
2026-05-08 11:12 22.63765 113.80934 21 ft 16 kts 153°
2026-05-08 11:13 22.63656 113.80994 21 ft 19 kts 153°
2026-05-08 11:13 22.63529 113.81064 21 ft 22 kts 153°
2026-05-08 11:13 22.63385 113.81142 21 ft 24 kts 153°
2026-05-08 11:13 22.63230 113.81228 21 ft 26 kts 153°
2026-05-08 11:14 22.63063 113.81319 21 ft 28 kts 153°
2026-05-08 11:14 22.62931 113.81392 21 ft 21 kts 153°
2026-05-08 11:14 22.62795 113.81466 21 ft 23 kts 153°
2026-05-08 11:14 22.62668 113.81537 20 ft 13 kts 153°
2026-05-08 11:15 22.62588 113.81580 21 ft 13 kts 153°
2026-05-08 11:15 22.62529 113.81613 21 ft 6 kts 153°
2026-05-08 11:15 22.62510 113.81663 20 ft 9 kts 75°
2026-05-08 11:15 22.62542 113.81735 20 ft 12 kts 63°
2026-05-08 11:16 22.62577 113.81787 20 ft 8 kts 27°
2026-05-08 11:16 22.62618 113.81781 20 ft 5 kts 334°
2026-05-08 11:16 22.62620 113.81780 20 ft 0 kts 333°
2026-05-08 11:17 22.62645 113.81766 21 ft 23 kts 333°
2026-05-08 11:17 22.63014 113.81563 21 ft 94 kts 333°
2026-05-08 11:17 22.63779 113.81143 22 ft 151 kts 333°
2026-05-08 11:18 22.64833 113.80565 239 ft 176 kts 333°
2026-05-08 11:18 22.65925 113.79965 924 ft 180 kts 331°
2026-05-08 11:18 22.67066 113.79326 1487 ft 188 kts 332°
2026-05-08 11:18 22.68218 113.78692 2040 ft 184 kts 333°
2026-05-08 11:19 22.69365 113.78061 2438 ft 187 kts 333°
2026-05-08 11:19 22.70537 113.77418 2818 ft 190 kts 333°
2026-05-08 11:19 22.71724 113.76764 3198 ft 195 kts 333°
2026-05-08 11:19 22.72965 113.76084 3477 ft 205 kts 333°
2026-05-08 11:20 22.74323 113.75504 3748 ft 217 kts 347°
2026-05-08 11:20 22.75847 113.75350 4033 ft 229 kts 357°
2026-05-08 11:20 22.77494 113.75256 4248 ft 246 kts 356°
2026-05-08 11:20 22.79259 113.75135 4585 ft 261 kts 356°
2026-05-08 11:21 22.81122 113.75002 4998 ft 273 kts 355°
2026-05-08 11:21 22.83038 113.74860 5573 ft 277 kts 355°
2026-05-08 11:21 22.84973 113.74716 6215 ft 279 kts 355°
2026-05-08 11:21 22.86921 113.74568 6827 ft 281 kts 355°
2026-05-08 11:22 22.88877 113.74421 7404 ft 283 kts 354°
2026-05-08 11:22 22.90847 113.74270 7960 ft 285 kts 354°
2026-05-08 11:22 22.92838 113.74165 8520 ft 288 kts 358°
2026-05-08 11:22 22.94855 113.74163 9082 ft 291 kts 358°
2026-05-08 11:23 22.96894 113.74172 9652 ft 294 kts 358°
2026-05-08 11:23 22.98924 113.74182 10119 ft 299 kts 358°
2026-05-08 11:23 23.01046 113.74188 10354 ft 312 kts 358°
2026-05-08 11:23 23.03270 113.74193 10546 ft 327 kts 358°
2026-05-08 11:24 23.05589 113.74203 10728 ft 341 kts 358°
2026-05-08 11:24 23.08007 113.74207 10900 ft 354 kts 358°
2026-05-08 11:24 23.10519 113.74217 11070 ft 367 kts 358°
2026-05-08 11:24 23.13118 113.74225 11306 ft 377 kts 358°
2026-05-08 11:25 23.15757 113.74235 11715 ft 381 kts 358°
2026-05-08 11:25 23.18400 113.74243 12157 ft 383 kts 358°
2026-05-08 11:25 23.21095 113.74254 12608 ft 386 kts 358°
2026-05-08 11:25 23.23784 113.74259 13050 ft 388 kts 358°
2026-05-08 11:26 23.26488 113.74164 13479 ft 389 kts 350°
2026-05-08 11:26 23.29075 113.73381 13860 ft 387 kts 333°
2026-05-08 11:26 23.31305 113.71766 14219 ft 384 kts 315°
2026-05-08 11:26 23.32977 113.69611 14594 ft 383 kts 304°
2026-05-08 11:27 23.34519 113.67236 14973 ft 386 kts 303°
2026-05-08 11:27 23.36066 113.64842 15346 ft 388 kts 303°
2026-05-08 11:27 23.37635 113.62440 15725 ft 390 kts 304°
2026-05-08 11:27 23.39186 113.60086 16089 ft 392 kts 304°
2026-05-08 11:28 23.40798 113.57659 16461 ft 394 kts 304°
2026-05-08 11:28 23.42404 113.55238 16826 ft 396 kts 304°
2026-05-08 11:28 23.44023 113.52804 17180 ft 398 kts 304°
2026-05-08 11:28 23.45648 113.50357 17528 ft 399 kts 304°
2026-05-08 11:29 23.47277 113.47902 17871 ft 401 kts 304°
2026-05-08 11:29 23.48914 113.45431 18199 ft 403 kts 304°
2026-05-08 11:29 23.50610 113.42989 18493 ft 406 kts 309°
2026-05-08 11:29 23.52704 113.40902 18776 ft 410 kts 323°
2026-05-08 11:30 23.55241 113.39443 19068 ft 416 kts 337°
2026-05-08 11:30 23.58077 113.38741 19355 ft 422 kts 352°
2026-05-08 11:30 23.61036 113.38745 19648 ft 426 kts 359°
2026-05-08 11:30 23.63963 113.38914 19937 ft 428 kts 360°
2026-05-08 11:31 23.66932 113.39085 20222 ft 429 kts 359°
2026-05-08 11:31 23.69925 113.39242 20515 ft 430 kts 359°
2026-05-08 11:31 23.72916 113.39386 20791 ft 431 kts 359°
2026-05-08 11:31 23.75920 113.39529 21073 ft 432 kts 359°
2026-05-08 11:32 23.78933 113.39665 21337 ft 434 kts 359°
2026-05-08 11:32 23.81958 113.39800 21630 ft 435 kts 359°
2026-05-08 11:32 23.84985 113.39939 21903 ft 436 kts 359°
2026-05-08 11:32 23.88022 113.40079 22173 ft 437 kts 358°
2026-05-08 11:33 23.91060 113.40219 22437 ft 438 kts 358°
2026-05-08 11:33 23.94113 113.40361 22694 ft 439 kts 358°
2026-05-08 11:33 23.97177 113.40503 22937 ft 441 kts 358°
2026-05-08 11:33 24.00251 113.40641 23190 ft 442 kts 358°
2026-05-08 11:34 24.03327 113.40780 23443 ft 443 kts 358°
2026-05-08 11:34 24.06362 113.40917 23675 ft 444 kts 358°
2026-05-08 11:34 24.09469 113.41060 23887 ft 446 kts 358°
2026-05-08 11:34 24.12570 113.41204 24079 ft 447 kts 358°
2026-05-08 11:35 24.15684 113.41348 24271 ft 448 kts 358°
2026-05-08 11:35 24.18810 113.41494 24463 ft 449 kts 358°
2026-05-08 11:35 24.21931 113.41621 24640 ft 450 kts 357°
2026-05-08 11:35 24.25081 113.41717 24818 ft 452 kts 357°
2026-05-08 11:36 24.28223 113.41814 24996 ft 453 kts 357°
2026-05-08 11:36 24.31382 113.41914 25163 ft 455 kts 357°
2026-05-08 11:36 24.34554 113.42017 25337 ft 456 kts 357°
2026-05-08 11:36 24.37725 113.42113 25510 ft 458 kts 357°
2026-05-08 11:37 24.40918 113.42195 25688 ft 459 kts 357°
2026-05-08 11:37 24.44118 113.42277 25856 ft 461 kts 357°
2026-05-08 11:37 24.47290 113.42363 26010 ft 463 kts 357°
2026-05-08 11:37 24.50512 113.42455 26200 ft 464 kts 357°
2026-05-08 11:38 24.53747 113.42549 26395 ft 465 kts 357°
2026-05-08 11:38 24.56992 113.42644 26588 ft 466 kts 357°
2026-05-08 11:38 24.60237 113.42736 26749 ft 467 kts 357°
2026-05-08 11:38 24.63489 113.42826 26911 ft 469 kts 357°
2026-05-08 11:39 24.66758 113.42919 27098 ft 470 kts 357°
2026-05-08 11:39 24.70022 113.43010 27325 ft 469 kts 357°
2026-05-08 11:39 24.73283 113.43103 27540 ft 469 kts 357°
2026-05-08 11:39 24.76545 113.43196 27752 ft 469 kts 357°
2026-05-08 11:40 24.79804 113.43291 27960 ft 468 kts 357°
2026-05-08 11:40 24.83060 113.43385 28177 ft 468 kts 357°
2026-05-08 11:40 24.86315 113.43478 28382 ft 468 kts 357°
2026-05-08 11:40 24.89574 113.43568 28592 ft 468 kts 356°
2026-05-08 11:41 24.92832 113.43659 28802 ft 467 kts 356°
2026-05-08 11:41 24.96079 113.43751 29012 ft 467 kts 356°
2026-05-08 11:41 24.99329 113.43839 29220 ft 466 kts 356°
2026-05-08 11:41 25.02570 113.43931 29429 ft 466 kts 356°
2026-05-08 11:42 25.05813 113.44028 29647 ft 465 kts 356°
2026-05-08 11:42 25.09047 113.44122 29849 ft 465 kts 356°
2026-05-08 11:42 25.12283 113.44216 30063 ft 465 kts 356°
2026-05-08 11:42 25.15514 113.44328 30242 ft 464 kts 356°
2026-05-08 11:43 25.18739 113.44443 30416 ft 464 kts 356°
2026-05-08 11:43 25.21961 113.44562 30580 ft 463 kts 356°
2026-05-08 11:43 25.25179 113.44643 30753 ft 462 kts 355°
2026-05-08 11:43 25.28383 113.44702 30899 ft 461 kts 355°
2026-05-08 11:44 25.31589 113.44773 31071 ft 460 kts 355°
2026-05-08 11:44 25.34792 113.44856 31229 ft 461 kts 355°
2026-05-08 11:44 25.38002 113.44943 31400 ft 461 kts 355°
2026-05-08 11:44 25.41206 113.45035 31573 ft 461 kts 355°
2026-05-08 11:45 25.44369 113.45129 31743 ft 460 kts 355°
2026-05-08 11:45 25.47567 113.45225 31905 ft 459 kts 355°
2026-05-08 11:45 25.50753 113.45315 32085 ft 458 kts 355°
2026-05-08 11:45 25.53939 113.45405 32248 ft 458 kts 355°
2026-05-08 11:46 25.57124 113.45497 32420 ft 457 kts 355°
2026-05-08 11:46 25.60300 113.45590 32593 ft 457 kts 355°
2026-05-08 11:46 25.63471 113.45682 32756 ft 456 kts 355°
2026-05-08 11:46 25.66651 113.45774 32928 ft 456 kts 355°
2026-05-08 11:47 25.69823 113.45865 33073 ft 457 kts 355°
2026-05-08 11:47 25.73001 113.45955 33210 ft 456 kts 355°
2026-05-08 11:47 25.76164 113.46048 33260 ft 455 kts 355°
2026-05-08 11:48 25.82486 113.46236 33239 ft 454 kts 355°
2026-05-08 11:48 25.88795 113.46285 33229 ft 451 kts 352°
2026-05-08 11:49 25.95071 113.46043 33229 ft 451 kts 351°
2026-05-08 11:49 26.01337 113.45797 33230 ft 451 kts 351°
2026-05-08 11:50 26.07609 113.45547 33243 ft 451 kts 351°
2026-05-08 11:50 26.13856 113.45311 33235 ft 449 kts 351°
2026-05-08 11:51 26.20075 113.45076 33240 ft 449 kts 351°
2026-05-08 11:51 26.26323 113.44836 33233 ft 449 kts 351°
2026-05-08 11:52 26.32572 113.44598 33239 ft 449 kts 351°
2026-05-08 11:52 26.38816 113.44359 33239 ft 449 kts 350°
2026-05-08 11:53 26.44012 113.44165 33240 ft 448 kts 350°
2026-05-08 11:53 26.50242 113.43923 33250 ft 448 kts 350°
2026-05-08 11:54 26.56472 113.43688 33237 ft 448 kts 350°
2026-05-08 11:54 26.63673 113.43420 33244 ft 448 kts 350°
2026-05-08 11:55 26.69942 113.43175 33244 ft 448 kts 350°
2026-05-08 11:55 26.75154 113.42974 33246 ft 448 kts 350°
2026-05-08 11:56 26.81381 113.42733 33244 ft 448 kts 350°
2026-05-08 11:56 26.87615 113.42487 33250 ft 448 kts 350°
2026-05-08 11:57 26.93817 113.42256 33254 ft 448 kts 349°
2026-05-08 11:57 27.00041 113.42015 33260 ft 448 kts 349°
2026-05-08 11:58 27.06270 113.41776 33262 ft 448 kts 349°
2026-05-08 11:58 27.12500 113.41529 33261 ft 448 kts 349°
2026-05-08 11:59 27.21852 113.41156 33274 ft 448 kts 349°
2026-05-08 11:59 27.28043 113.40925 33270 ft 448 kts 349°
2026-05-08 12:00 27.34294 113.40768 33268 ft 451 kts 352°
2026-05-08 12:00 27.40571 113.40889 33273 ft 451 kts 352°
2026-05-08 12:01 27.46847 113.41021 33276 ft 451 kts 352°
2026-05-08 12:01 27.53117 113.41149 33275 ft 451 kts 352°
2026-05-08 12:02 27.59434 113.41273 33279 ft 450 kts 352°
2026-05-08 12:02 27.65697 113.41424 33279 ft 453 kts 354°
2026-05-08 12:03 27.72009 113.41963 33285 ft 455 kts 355°
2026-05-08 12:03 27.78326 113.42537 33274 ft 454 kts 355°
2026-05-08 12:04 27.84630 113.43095 33277 ft 454 kts 355°
2026-05-08 12:04 27.90927 113.43654 33284 ft 453 kts 355°
2026-05-08 12:05 27.97213 113.44211 33279 ft 453 kts 355°
2026-05-08 12:05 28.03494 113.44753 33282 ft 452 kts 354°
2026-05-08 12:06 28.09730 113.45297 33283 ft 453 kts 354°
2026-05-08 12:06 28.16005 113.45750 33283 ft 450 kts 353°
2026-05-08 12:07 28.22259 113.46179 33279 ft 451 kts 353°
2026-05-08 12:07 28.28515 113.46624 33277 ft 451 kts 353°
2026-05-08 12:08 28.34788 113.47080 33282 ft 451 kts 353°
2026-05-08 12:08 28.41042 113.47529 33288 ft 451 kts 353°
2026-05-08 12:09 28.47311 113.47977 33288 ft 451 kts 353°
2026-05-08 12:09 28.53517 113.48419 33296 ft 451 kts 353°
2026-05-08 12:10 28.59779 113.48864 33294 ft 451 kts 353°
2026-05-08 12:10 28.66050 113.49316 33290 ft 451 kts 353°
2026-05-08 12:11 28.72302 113.49766 33286 ft 451 kts 353°
2026-05-08 12:11 28.78546 113.50212 33287 ft 452 kts 353°
2026-05-08 12:12 28.84816 113.50659 33286 ft 452 kts 353°
2026-05-08 12:12 28.91091 113.51114 33287 ft 452 kts 353°
2026-05-08 12:13 28.97356 113.51565 33285 ft 453 kts 353°
2026-05-08 12:13 29.03652 113.52020 33292 ft 452 kts 353°
2026-05-08 12:14 29.09931 113.52465 33301 ft 452 kts 353°
2026-05-08 12:14 29.16201 113.52916 33285 ft 452 kts 353°
2026-05-08 12:15 29.22484 113.53367 33276 ft 452 kts 353°
2026-05-08 12:15 29.28758 113.53808 33282 ft 452 kts 353°
2026-05-08 12:16 29.35045 113.54343 33282 ft 453 kts 353°
2026-05-08 12:16 29.41287 113.54902 33277 ft 452 kts 353°
2026-05-08 12:17 29.47553 113.55445 33275 ft 453 kts 353°
2026-05-08 12:17 29.53832 113.55988 33278 ft 452 kts 353°
2026-05-08 12:18 29.60104 113.56530 33282 ft 452 kts 353°
2026-05-08 12:18 29.66377 113.57065 33281 ft 451 kts 353°
2026-05-08 12:19 29.72640 113.57617 33280 ft 452 kts 354°
2026-05-08 12:19 29.78911 113.58185 33271 ft 452 kts 354°
2026-05-08 12:20 29.85186 113.58736 33275 ft 452 kts 354°
2026-05-08 12:20 29.91462 113.59288 33275 ft 452 kts 354°
2026-05-08 12:21 29.94573 113.59840 33272 ft 465 kts
2026-05-08 12:21 29.97676 113.61062 33280 ft 478 kts 13°
2026-05-08 12:21 30.03789 113.64170 33269 ft 480 kts 14°
2026-05-08 12:22 30.09908 113.67272 33276 ft 480 kts 14°
2026-05-08 12:22 30.16035 113.70337 33282 ft 479 kts 13°
2026-05-08 12:23 30.22154 113.73383 33266 ft 479 kts 14°
2026-05-08 12:23 30.28273 113.76448 33269 ft 479 kts 14°
2026-05-08 12:24 30.34391 113.79515 33265 ft 479 kts 14°
2026-05-08 12:24 30.40522 113.82591 33268 ft 480 kts 14°
2026-05-08 12:25 30.46647 113.85655 33261 ft 480 kts 14°
2026-05-08 12:25 30.52785 113.88732 33266 ft 480 kts 14°
2026-05-08 12:26 30.58884 113.91791 33258 ft 480 kts 14°
2026-05-08 12:26 30.65024 113.94856 33268 ft 480 kts 13°
2026-05-08 12:27 30.71175 113.97915 33266 ft 484 kts 17°
2026-05-08 12:27 30.77247 114.01324 33268 ft 485 kts 17°
2026-05-08 12:28 30.83357 114.04670 33272 ft 484 kts 16°
2026-05-08 12:28 30.89477 114.07965 33271 ft 485 kts 16°
2026-05-08 12:29 30.95596 114.11272 33270 ft 485 kts 16°
2026-05-08 12:29 31.01711 114.14591 33263 ft 485 kts 16°
2026-05-08 12:30 31.07833 114.17920 33258 ft 485 kts 16°
2026-05-08 12:30 31.13959 114.21261 33259 ft 486 kts 17°
2026-05-08 12:31 31.20090 114.24600 33258 ft 486 kts 17°
2026-05-08 12:31 31.26215 114.27939 33260 ft 486 kts 17°
2026-05-08 12:32 31.32355 114.31284 33261 ft 486 kts 16°
2026-05-08 12:32 31.35475 114.32655 33248 ft 474 kts
2026-05-08 12:32 31.38681 114.33301 33256 ft 460 kts 355°
2026-05-08 12:33 31.44989 114.33488 33261 ft 456 kts 352°
2026-05-08 12:33 31.51345 114.33622 33264 ft 456 kts 352°
2026-05-08 12:34 31.57687 114.33801 33258 ft 457 kts 353°
2026-05-08 12:34 31.64049 114.33991 33266 ft 457 kts 353°
2026-05-08 12:35 31.70405 114.34175 33271 ft 457 kts 353°
2026-05-08 12:35 31.76774 114.34368 33266 ft 458 kts 353°
2026-05-08 12:36 31.83146 114.34564 33268 ft 459 kts 353°
2026-05-08 12:36 31.89492 114.34756 33265 ft 458 kts 353°
2026-05-08 12:37 31.95858 114.34953 33262 ft 458 kts 354°
2026-05-08 12:37 32.02217 114.35149 33268 ft 457 kts 354°
2026-05-08 12:38 32.07515 114.35311 33266 ft 457 kts 354°
2026-05-08 12:38 32.13878 114.35504 33268 ft 458 kts 354°
2026-05-08 12:39 32.20243 114.35698 33267 ft 457 kts 354°
2026-05-08 12:39 32.26611 114.35965 33267 ft 459 kts 358°
2026-05-08 12:40 32.32980 114.36523 33267 ft 459 kts 358°
2026-05-08 12:40 32.39346 114.37108 33270 ft 459 kts 358°
2026-05-08 12:41 32.45709 114.37692 33268 ft 458 kts 358°
2026-05-08 12:41 32.52028 114.38270 33262 ft 457 kts 358°
2026-05-08 12:42 32.58377 114.38845 33263 ft 457 kts 358°
2026-05-08 12:42 32.64717 114.39430 33262 ft 457 kts 359°
2026-05-08 12:43 32.71053 114.40020 33265 ft 457 kts 359°
2026-05-08 12:43 32.77393 114.40613 33265 ft 456 kts 359°
2026-05-08 12:44 32.83719 114.41204 33271 ft 455 kts 359°
2026-05-08 12:44 32.90028 114.41790 33267 ft 455 kts 359°
2026-05-08 12:45 32.96335 114.42375 33266 ft 454 kts 359°
2026-05-08 12:45 33.02639 114.42970 33266 ft 455 kts 359°
2026-05-08 12:46 33.08960 114.43565 33267 ft 455 kts 359°
2026-05-08 12:46 33.15235 114.44152 33264 ft 455 kts 359°
2026-05-08 12:47 33.21547 114.44744 33265 ft 455 kts 359°
2026-05-08 12:47 33.27896 114.45341 33270 ft 455 kts 359°
2026-05-08 12:48 33.34196 114.45934 33266 ft 454 kts 359°
2026-05-08 12:48 33.40493 114.46525 33265 ft 454 kts 359°
2026-05-08 12:49 33.46747 114.47114 33264 ft 453 kts 359°
2026-05-08 12:49 33.53027 114.47707 33268 ft 453 kts 359°
2026-05-08 12:50 33.59305 114.48299 33268 ft 452 kts 359°
2026-05-08 12:50 33.65572 114.48888 33266 ft 451 kts 358°
2026-05-08 12:51 33.74967 114.49767 33269 ft 450 kts 358°
2026-05-08 12:52 33.81213 114.50351 33264 ft 450 kts 358°
2026-05-08 12:52 33.90571 114.51230 33264 ft 449 kts 358°
2026-05-08 12:53 33.96774 114.51816 33261 ft 449 kts 358°
2026-05-08 12:53 34.03000 114.52405 33263 ft 449 kts 358°
2026-05-08 12:54 34.09233 114.52995 33259 ft 449 kts 358°
2026-05-08 12:54 34.15467 114.53584 33259 ft 449 kts 358°
2026-05-08 12:55 34.21694 114.54176 33261 ft 449 kts 358°
2026-05-08 12:55 34.27934 114.54769 33262 ft 449 kts 358°
2026-05-08 12:56 34.34169 114.55363 33260 ft 449 kts 358°
2026-05-08 12:56 34.40396 114.55956 33262 ft 449 kts 357°
2026-05-08 12:57 34.46620 114.56550 33258 ft 448 kts 357°
2026-05-08 12:57 34.52843 114.57141 33258 ft 448 kts 357°
2026-05-08 12:58 34.59015 114.57723 33258 ft 447 kts 357°
2026-05-08 12:58 34.65218 114.58312 33257 ft 447 kts 357°
2026-05-08 12:59 34.71421 114.58902 33254 ft 446 kts 357°
2026-05-08 12:59 34.77609 114.59491 33254 ft 446 kts 357°
2026-05-08 13:00 34.83789 114.60082 33253 ft 446 kts 357°
2026-05-08 13:00 34.89976 114.60671 33245 ft 445 kts 357°
2026-05-08 13:01 34.96154 114.61262 33249 ft 445 kts 357°
2026-05-08 13:01 35.02333 114.61856 33238 ft 445 kts 356°
2026-05-08 13:02 35.08497 114.62449 33244 ft 445 kts 356°
2026-05-08 13:02 35.14675 114.63041 33241 ft 444 kts 356°
2026-05-08 13:03 35.20792 114.63630 33230 ft 444 kts 356°
2026-05-08 13:03 35.26943 114.64223 33226 ft 443 kts 356°
2026-05-08 13:04 35.33093 114.64817 33228 ft 443 kts 356°
2026-05-08 13:04 35.39234 114.65411 33222 ft 443 kts 356°
2026-05-08 13:05 35.45369 114.66005 33219 ft 442 kts 356°
2026-05-08 13:05 35.51510 114.66599 33209 ft 442 kts 356°
2026-05-08 13:06 35.57632 114.67196 33208 ft 441 kts 356°
2026-05-08 13:06 35.63761 114.67792 33207 ft 441 kts 356°
2026-05-08 13:07 35.69891 114.68389 33206 ft 441 kts 356°
2026-05-08 13:07 35.76013 114.68987 33202 ft 441 kts 355°
2026-05-08 13:08 35.82125 114.69583 33194 ft 441 kts 355°
2026-05-08 13:08 35.88200 114.70179 33190 ft 441 kts 355°
2026-05-08 13:09 35.94319 114.70779 33186 ft 441 kts 355°
2026-05-08 13:09 36.00447 114.71379 33183 ft 441 kts 355°
2026-05-08 13:10 36.06573 114.71984 33176 ft 441 kts 355°
2026-05-08 13:10 36.12693 114.72582 33177 ft 441 kts 355°
2026-05-08 13:11 36.18820 114.73181 33172 ft 441 kts 355°
2026-05-08 13:11 36.24939 114.73780 33167 ft 441 kts 355°
2026-05-08 13:12 36.31058 114.74386 33159 ft 441 kts 355°
2026-05-08 13:12 36.37179 114.75254 33154 ft 451 kts
2026-05-08 13:13 36.40152 114.76526 33153 ft 464 kts 15°
2026-05-08 13:13 36.43094 114.78208 33153 ft 467 kts 17°
2026-05-08 13:13 36.48955 114.81678 33149 ft 466 kts 16°
2026-05-08 13:14 36.54839 114.85105 33143 ft 466 kts 16°
2026-05-08 13:14 36.60708 114.88506 33136 ft 464 kts 16°
2026-05-08 13:15 36.66563 114.91919 33135 ft 465 kts 16°
2026-05-08 13:15 36.72422 114.95325 33126 ft 464 kts 16°
2026-05-08 13:16 36.78271 114.98741 33121 ft 464 kts 16°
2026-05-08 13:16 36.84087 115.02136 33122 ft 464 kts 15°
2026-05-08 13:17 36.89934 115.05559 33121 ft 463 kts 15°
2026-05-08 13:17 36.95774 115.08975 33114 ft 463 kts 15°
2026-05-08 13:18 37.01607 115.12407 33112 ft 462 kts 15°
2026-05-08 13:18 37.07424 115.15834 33106 ft 462 kts 15°
2026-05-08 13:19 37.13232 115.19253 33101 ft 461 kts 15°
2026-05-08 13:19 37.19001 115.22651 33102 ft 460 kts 15°
2026-05-08 13:20 37.24800 115.26081 33091 ft 460 kts 16°
2026-05-08 13:20 37.30601 115.29518 33091 ft 460 kts 16°
2026-05-08 13:21 37.36389 115.32951 33085 ft 459 kts 16°
2026-05-08 13:21 37.42164 115.36386 33084 ft 460 kts 16°
2026-05-08 13:22 37.47937 115.39843 33080 ft 460 kts 16°
2026-05-08 13:22 37.53720 115.43293 33061 ft 460 kts 16°
2026-05-08 13:23 37.56607 115.45023 32724 ft 459 kts 16°
2026-05-08 13:23 37.59490 115.46748 32436 ft 459 kts 16°
2026-05-08 13:23 37.61403 115.47894 32261 ft 459 kts 16°
2026-05-08 13:23 37.65269 115.50210 31919 ft 459 kts 17°
2026-05-08 13:24 37.67173 115.51356 31753 ft 458 kts 17°
2026-05-08 13:24 37.70048 115.53081 31504 ft 455 kts 16°
2026-05-08 13:24 37.72916 115.54782 31257 ft 453 kts 17°
2026-05-08 13:24 37.75756 115.56473 31017 ft 450 kts 16°
2026-05-08 13:25 37.78629 115.57922 30767 ft 438 kts
2026-05-08 13:25 37.81569 115.58642 30518 ft 422 kts 356°
2026-05-08 13:25 37.84470 115.58642 30285 ft 412 kts 349°
2026-05-08 13:25 37.87321 115.58414 30044 ft 410 kts 348°
2026-05-08 13:26 37.90162 115.58170 29753 ft 408 kts 349°
2026-05-08 13:26 37.92986 115.57942 29250 ft 404 kts 349°
2026-05-08 13:26 37.95744 115.57732 28653 ft 401 kts 350°
2026-05-08 13:26 37.98516 115.57525 28042 ft 398 kts 351°
2026-05-08 13:27 38.01275 115.57320 27451 ft 396 kts 351°
2026-05-08 13:27 38.04015 115.57115 26865 ft 393 kts 351°
2026-05-08 13:27 38.06737 115.56911 26301 ft 391 kts 352°
2026-05-08 13:27 38.09450 115.56769 25753 ft 389 kts 354°
2026-05-08 13:28 38.12146 115.56631 25220 ft 386 kts 353°
2026-05-08 13:28 38.14829 115.56447 24701 ft 384 kts 353°
2026-05-08 13:28 38.17485 115.56264 24190 ft 381 kts 354°
2026-05-08 13:28 38.20129 115.56073 23699 ft 379 kts 354°
2026-05-08 13:29 38.22751 115.55888 23187 ft 377 kts 355°
2026-05-08 13:29 38.25367 115.55935 22721 ft 376 kts
2026-05-08 13:29 38.27938 115.56539 22318 ft 376 kts 13°
2026-05-08 13:29 38.30386 115.57728 21925 ft 377 kts 22°
2026-05-08 13:30 38.32730 115.59200 21535 ft 374 kts 23°
2026-05-08 13:30 38.35044 115.60685 21151 ft 371 kts 23°
2026-05-08 13:30 38.37343 115.62156 20771 ft 368 kts 23°
2026-05-08 13:30 38.39628 115.63605 20397 ft 365 kts 23°
2026-05-08 13:31 38.41867 115.65021 20032 ft 363 kts 23°
2026-05-08 13:31 38.44152 115.66461 19663 ft 360 kts 23°
2026-05-08 13:31 38.46388 115.67871 19306 ft 357 kts 23°
2026-05-08 13:31 38.48583 115.69255 18953 ft 355 kts 23°
2026-05-08 13:32 38.50792 115.70648 18600 ft 353 kts 23°
2026-05-08 13:32 38.52985 115.72033 18322 ft 351 kts 23°
2026-05-08 13:32 38.55168 115.73423 18034 ft 350 kts 23°
2026-05-08 13:32 38.57346 115.74809 17759 ft 349 kts 23°
2026-05-08 13:33 38.59573 115.76010 17636 ft 345 kts 12°
2026-05-08 13:33 38.61913 115.76662 17637 ft 344 kts
2026-05-08 13:33 38.64270 115.77222 17646 ft 344 kts
2026-05-08 13:33 38.66624 115.77791 17656 ft 344 kts
2026-05-08 13:34 38.68975 115.78377 17655 ft 344 kts
2026-05-08 13:34 38.71326 115.78969 17660 ft 345 kts
2026-05-08 13:34 38.73676 115.79568 17662 ft 345 kts
2026-05-08 13:34 38.76033 115.80167 17661 ft 345 kts
2026-05-08 13:35 38.78385 115.80768 17662 ft 345 kts
2026-05-08 13:35 38.80738 115.81369 17663 ft 345 kts
2026-05-08 13:35 38.83092 115.81974 17663 ft 345 kts
2026-05-08 13:35 38.85445 115.82577 17658 ft 345 kts
2026-05-08 13:36 38.87803 115.83181 17537 ft 345 kts
2026-05-08 13:36 38.90150 115.83783 17312 ft 344 kts
2026-05-08 13:36 38.92490 115.84386 17062 ft 343 kts
2026-05-08 13:36 38.94828 115.84986 16808 ft 342 kts
2026-05-08 13:37 38.97159 115.85583 16548 ft 341 kts
2026-05-08 13:37 38.99483 115.86177 16294 ft 340 kts
2026-05-08 13:37 39.01801 115.86768 16039 ft 339 kts
2026-05-08 13:37 39.04116 115.87359 15787 ft 338 kts
2026-05-08 13:38 39.06423 115.87948 15636 ft 338 kts
2026-05-08 13:38 39.08726 115.88535 15623 ft 338 kts
2026-05-08 13:38 39.11033 115.89126 15638 ft 338 kts
2026-05-08 13:38 39.13339 115.89719 15651 ft 338 kts
2026-05-08 13:39 39.15646 115.90316 15655 ft 338 kts
2026-05-08 13:39 39.17919 115.90904 15657 ft 338 kts
2026-05-08 13:39 39.20225 115.91500 15657 ft 338 kts
2026-05-08 13:39 39.22531 115.92097 15656 ft 338 kts
2026-05-08 13:40 39.24839 115.92696 15656 ft 338 kts
2026-05-08 13:40 39.27145 115.93303 15655 ft 338 kts
2026-05-08 13:40 39.29453 115.93906 15657 ft 338 kts
2026-05-08 13:40 39.31763 115.94506 15652 ft 338 kts
2026-05-08 13:41 39.34071 115.95103 15653 ft 338 kts
2026-05-08 13:41 39.36377 115.95699 15650 ft 338 kts
2026-05-08 13:41 39.38689 115.96299 15654 ft 339 kts
2026-05-08 13:41 39.41002 115.96898 15654 ft 339 kts
2026-05-08 13:42 39.43311 115.97500 15653 ft 339 kts
2026-05-08 13:42 39.45625 115.98102 15653 ft 339 kts
2026-05-08 13:42 39.47932 115.98702 15656 ft 339 kts
2026-05-08 13:42 39.50242 115.99304 15657 ft 339 kts
2026-05-08 13:43 39.52555 115.99911 15659 ft 339 kts
2026-05-08 13:43 39.54859 116.00515 15662 ft 339 kts
2026-05-08 13:43 39.57174 116.01130 15661 ft 339 kts
2026-05-08 13:43 39.59484 116.01745 15659 ft 339 kts
2026-05-08 13:44 39.61804 116.02353 15592 ft 338 kts
2026-05-08 13:44 39.64066 116.02944 15397 ft 328 kts
2026-05-08 13:44 39.66245 116.03519 15162 ft 318 kts
2026-05-08 13:44 39.68389 116.04089 14915 ft 310 kts
2026-05-08 13:45 39.70465 116.04642 14668 ft 302 kts
2026-05-08 13:45 39.72503 116.05174 14422 ft 294 kts
2026-05-08 13:45 39.74484 116.05687 14173 ft 287 kts
2026-05-08 13:45 39.76421 116.06183 13933 ft 280 kts
2026-05-08 13:46 39.78309 116.06671 13688 ft 273 kts
2026-05-08 13:46 39.80155 116.07153 13421 ft 268 kts
2026-05-08 13:46 39.81978 116.07628 13162 ft 268 kts
2026-05-08 13:46 39.83821 116.07889 12896 ft 264 kts 357°
2026-05-08 13:47 39.85658 116.07900 12731 ft 263 kts 356°
2026-05-08 13:47 39.87493 116.07887 12712 ft 264 kts 355°
2026-05-08 13:47 39.89326 116.07879 12733 ft 264 kts 356°
2026-05-08 13:47 39.91164 116.07874 12736 ft 264 kts 356°
2026-05-08 13:48 39.92983 116.07874 12741 ft 264 kts 356°
2026-05-08 13:48 39.94819 116.07877 12744 ft 264 kts 356°
2026-05-08 13:48 39.96664 116.07879 12745 ft 265 kts 356°
2026-05-08 13:48 39.98507 116.07880 12741 ft 265 kts 356°
2026-05-08 13:49 40.00352 116.07879 12741 ft 265 kts 355°
2026-05-08 13:49 40.02200 116.07882 12742 ft 265 kts 355°
2026-05-08 13:49 40.04042 116.07883 12738 ft 266 kts 355°
2026-05-08 13:49 40.05894 116.08095 12671 ft 272 kts 12°
2026-05-08 13:50 40.07656 116.09088 12734 ft 277 kts 22°
2026-05-08 13:50 40.09341 116.10276 12710 ft 270 kts 23°
2026-05-08 13:50 40.10969 116.11428 12450 ft 264 kts 22°
2026-05-08 13:50 40.12583 116.12543 12090 ft 262 kts 22°
2026-05-08 13:51 40.14194 116.13637 11722 ft 261 kts 22°
2026-05-08 13:51 40.15802 116.14721 11356 ft 260 kts 22°
2026-05-08 13:51 40.17409 116.15799 10995 ft 259 kts 22°
2026-05-08 13:51 40.19016 116.16871 10644 ft 258 kts 22°
2026-05-08 13:52 40.20617 116.17939 10292 ft 258 kts 22°
2026-05-08 13:52 40.22214 116.19005 9947 ft 257 kts 22°
2026-05-08 13:52 40.23810 116.20072 9568 ft 257 kts 23°
2026-05-08 13:52 40.25403 116.21142 9180 ft 257 kts 23°
2026-05-08 13:53 40.26975 116.22195 8793 ft 257 kts 24°
2026-05-08 13:53 40.28568 116.23263 8423 ft 257 kts 24°
2026-05-08 13:53 40.30160 116.24330 8060 ft 257 kts 25°
2026-05-08 13:53 40.31750 116.25397 7704 ft 257 kts 25°
2026-05-08 13:54 40.33327 116.26454 7415 ft 252 kts 25°
2026-05-08 13:54 40.34872 116.27491 7152 ft 246 kts 26°
2026-05-08 13:54 40.36378 116.28503 6909 ft 240 kts 27°
2026-05-08 13:54 40.37850 116.29490 6833 ft 237 kts 27°
2026-05-08 13:55 40.39261 116.30608 6830 ft 239 kts 44°
2026-05-08 13:55 40.40119 116.32406 6839 ft 232 kts 79°
2026-05-08 13:55 40.40312 116.36526 6751 ft 215 kts 92°
2026-05-08 13:56 40.40348 116.38457 6581 ft 206 kts 92°
2026-05-08 13:56 40.40386 116.40323 6344 ft 205 kts 92°
2026-05-08 13:56 40.40431 116.42184 6105 ft 204 kts 91°
2026-05-08 13:56 40.40466 116.44028 5844 ft 202 kts 92°
2026-05-08 13:57 40.40523 116.45866 5595 ft 201 kts 92°
2026-05-08 13:57 40.40280 116.47613 5334 ft 193 kts 122°
2026-05-08 13:57 40.39412 116.48910 5100 ft 188 kts 142°
2026-05-08 13:57 40.38372 116.49912 4906 ft 183 kts 152°
2026-05-08 13:58 40.37316 116.50782 4822 ft 182 kts 152°
2026-05-08 13:58 40.36242 116.51650 4613 ft 182 kts 153°
2026-05-08 13:58 40.35167 116.52529 4386 ft 181 kts 152°
2026-05-08 13:58 40.34102 116.53401 4146 ft 180 kts 152°
2026-05-08 13:59 40.33042 116.54267 3891 ft 178 kts 152°
2026-05-08 13:59 40.31986 116.55121 3637 ft 178 kts 152°
2026-05-08 13:59 40.30888 116.55841 3393 ft 175 kts 166°
2026-05-08 13:59 40.29711 116.56163 3160 ft 172 kts 174°
2026-05-08 14:00 40.28532 116.56373 2966 ft 171 kts 175°
2026-05-08 14:00 40.27350 116.56567 2948 ft 170 kts 176°
2026-05-08 14:00 40.26174 116.56755 2964 ft 170 kts 176°
2026-05-08 14:00 40.25002 116.56941 2978 ft 170 kts 176°
2026-05-08 14:01 40.23823 116.57128 2960 ft 170 kts 176°
2026-05-08 14:01 40.22651 116.57314 2812 ft 169 kts 176°
2026-05-08 14:01 40.21490 116.57498 2609 ft 168 kts 176°
2026-05-08 14:01 40.20349 116.57680 2387 ft 160 kts 176°
2026-05-08 14:02 40.19302 116.57845 2188 ft 146 kts 176°
2026-05-08 14:02 40.18313 116.58001 2010 ft 142 kts 176°
2026-05-08 14:02 40.17334 116.58156 1829 ft 142 kts 176°
2026-05-08 14:02 40.16355 116.58311 1642 ft 141 kts 176°
2026-05-08 14:03 40.15383 116.58465 1443 ft 141 kts 176°
2026-05-08 14:03 40.14410 116.58618 1253 ft 140 kts 176°
2026-05-08 14:03 40.13441 116.58771 1061 ft 140 kts 175°
2026-05-08 14:03 40.12480 116.58924 868 ft 140 kts 173°
2026-05-08 14:04 40.11529 116.59070 633 ft 133 kts 173°
2026-05-08 14:04 40.10589 116.59241 510 ft 140 kts 173°
2026-05-08 14:04 40.09623 116.59373 296 ft 138 kts 173°
2026-05-08 14:04 40.08670 116.59525 142 ft 136 kts 173°
2026-05-08 14:05 40.07870 116.59652 128 ft 87 kts 173°
2026-05-08 14:05 40.07465 116.59714 126 ft 33 kts 173°
2026-05-08 14:05 40.07230 116.59732 127 ft 35 kts 188°
2026-05-08 14:05 40.07045 116.59664 127 ft 11 kts 198°
2026-05-08 14:06 40.06976 116.59621 126 ft 11 kts 238°
2026-05-08 14:06 40.06990 116.59561 126 ft 9 kts 324°
2026-05-08 14:06 40.07062 116.59544 127 ft 9 kts 353°
2026-05-08 14:06 40.07139 116.59533 125 ft 13 kts 353°
2026-05-08 14:07 40.07239 116.59516 125 ft 13 kts 353°
2026-05-08 14:07 40.07334 116.59500 126 ft 13 kts 345°
2026-05-08 14:07 40.07413 116.59443 125 ft 11 kts 328°
2026-05-08 14:07 40.07504 116.59418 126 ft 16 kts 353°
2026-05-08 14:08 40.07624 116.59399 129 ft 19 kts 353°
2026-05-08 14:08 40.07732 116.59382 126 ft 11 kts 353°
2026-05-08 14:08 40.07778 116.59337 124 ft 10 kts 279°
2026-05-08 14:08 40.07772 116.59266 125 ft 13 kts 260°
2026-05-08 14:09 40.07762 116.59173 129 ft 11 kts 263°
2026-05-08 14:09 40.07753 116.59080 129 ft 6 kts 263°
2026-05-08 14:09 40.07751 116.59054 129 ft 2 kts 263°
2026-05-08 14:09 40.07749 116.59033 129 ft 3 kts 263°
2026-05-08 14:10 40.07746 116.59000 125 ft 0 kts 263°
2026-05-08 14:11 40.07746 116.59002 128 ft 1 kts 263°
2026-05-08 14:11 40.07746 116.59005 127 ft 0 kts 263°
2026-05-08 14:11 40.07746 116.59003 127 ft 0 kts 263°